Weather History for Unalakleet, AK

Change the Weather History Date:

Thursday, January 24, 2013

  Actual Average Record
Temperature  
Mean Temperature 3 °F -  
Max Temperature 6 °F 12 °F 39 °F (1961)
Min Temperature -5 °F -1 °F -38 °F (2012)
Degree Days  
Heating Degree Days 62    
Moisture  
Dew Point -15 °F    
Average Humidity 48    
Maximum Humidity 56    
Minimum Humidity 36    
Precipitation  
Precipitation 0.00 in - - ()
Sea Level Pressure  
Sea Level Pressure 29.90 in    
Wind  
Wind Speed 18 mph (ENE)    
Max Wind Speed 28 mph    
Max Gust Speed 36 mph    
Visibility 10 miles    
Events      
Averages and records for this station are not official NWS values.
T = Trace of Precipitation, MM = Missing Value Source: NWS Daily Summary

Daily Weather History Graph

Daily Weather History Graph

Search for Another Location

Airport:

Trip Planner

Search our weather history database for the weather conditions in past years. The results will help you decide how hot, cold, wet, or windy it might be!

Date:

Astronomy

Jan. 24, 2013 Rise Set
Actual Time 10:43 AM AKST 5:08 PM AKST
Civil Twilight 9:42 AM AKST 6:08 PM AKST
Nautical Twilight 8:42 AM AKST 7:09 PM AKST
Astronomical Twilight 7:46 AM AKST 8:05 PM AKST
Moon 3:08 PM AKST (1/24) 9:04 AM AKST (1/24)
Length of Visible Light 8h 25m
Length of Day
6h 25m
Waxing Gibbous, 95% of the Moon is Illuminated
Jan 24
Waxing Gibbous
Jan 26
Full
Feb 3
Last Quarter
Feb 9
New
Feb 17
First Quarter

Hourly Weather History & Observations

Time (AKST) Temp. Windchill Dew Point Humidity Pressure Visibility Wind Dir Wind Speed Gust Speed Precip Events Conditions
12:16 AM 6.8 °F -12.9 °F -9.4 °F 48% 29.69 in 10.0 mi ENE 19.6 mph 24.2 mph N/A   Clear
12:36 AM 6.8 °F -13.8 °F -9.4 °F 48% 29.69 in 10.0 mi ENE 21.9 mph 29.9 mph N/A   Clear
12:56 AM 6.8 °F -15.9 °F -9.4 °F 48% 29.68 in 10.0 mi ENE 27.6 mph 34.5 mph N/A   Clear
1:16 AM 5.0 °F -17.9 °F -9.4 °F 52% 29.69 in 10.0 mi ENE 26.5 mph 35.7 mph N/A   Clear
1:36 AM 5.0 °F -17.9 °F -9.4 °F 52% 29.69 in 10.0 mi ENE 26.5 mph - N/A   Clear
1:56 AM 5.0 °F -16.7 °F -11.2 °F 47% 29.71 in 10.0 mi NE 23.0 mph 27.6 mph N/A   Clear
2:16 AM 3.2 °F -19.0 °F -9.4 °F 56% 29.71 in 10.0 mi ENE 23.0 mph - N/A   Clear
2:36 AM 3.2 °F -19.0 °F -11.2 °F 51% 29.72 in 10.0 mi ENE 23.0 mph 27.6 mph N/A   Clear
3:36 AM 5.0 °F -17.5 °F -9.4 °F 52% 29.74 in 10.0 mi NE 25.3 mph 34.5 mph N/A   Clear
3:56 AM 3.2 °F -17.1 °F -11.2 °F 51% 29.76 in 10.0 mi ENE 18.4 mph 24.2 mph N/A   Clear
4:16 AM 3.2 °F -18.1 °F -9.4 °F 56% 29.76 in 10.0 mi ENE 20.7 mph - N/A   Clear
4:36 AM 3.2 °F -18.6 °F -11.2 °F 51% 29.77 in 10.0 mi NE 21.9 mph 27.6 mph N/A   Clear
4:56 AM 3.2 °F -18.1 °F -11.2 °F 51% 29.77 in 10.0 mi ENE 20.7 mph 27.6 mph N/A   Clear
5:16 AM 3.2 °F -20.7 °F -11.2 °F 51% 29.76 in 10.0 mi ENE 27.6 mph 33.4 mph N/A   Clear
5:36 AM 1.4 °F -22.7 °F -11.2 °F 56% 29.77 in 10.0 mi ENE 26.5 mph 33.4 mph N/A   Clear
5:56 AM 1.4 °F -19.9 °F -13.0 °F 51% 29.79 in 10.0 mi ENE 19.6 mph 25.3 mph N/A   Clear
6:16 AM 1.4 °F -19.9 °F -11.2 °F 56% 29.79 in 10.0 mi ENE 19.6 mph - N/A   Clear
6:36 AM 1.4 °F -18.2 °F -13.0 °F 51% 29.80 in 10.0 mi ENE 16.1 mph - N/A   Clear
6:56 AM 1.4 °F -20.5 °F -14.8 °F 47% 29.81 in 10.0 mi ENE 20.7 mph 26.5 mph N/A   Clear
7:16 AM -0.4 °F -21.7 °F -13.0 °F 55% 29.82 in 10.0 mi ENE 18.4 mph - N/A   Clear
7:36 AM -0.4 °F -22.3 °F -14.8 °F 51% 29.82 in 10.0 mi ENE 19.6 mph 24.2 mph N/A   Clear
7:56 AM -0.4 °F -19.9 °F -14.8 °F 51% 29.83 in 10.0 mi NE 15.0 mph 23.0 mph N/A   Clear
8:16 AM -0.4 °F -20.5 °F -13.0 °F 55% 29.85 in 10.0 mi ENE 16.1 mph - N/A   Clear
8:36 AM -0.4 °F -18.4 °F -14.8 °F 51% 29.85 in 10.0 mi NE 12.7 mph - N/A   Clear
8:56 AM -0.4 °F -17.6 °F -14.8 °F 51% 29.86 in 10.0 mi ENE 11.5 mph - N/A   Clear
9:16 AM -0.4 °F -19.9 °F -14.8 °F 51% 29.87 in 10.0 mi ENE 15.0 mph - N/A   Clear
9:36 AM -0.4 °F -19.9 °F -14.8 °F 51% 29.87 in 10.0 mi ENE 15.0 mph - N/A   Clear
9:56 AM -0.4 °F -21.2 °F -14.8 °F 51% 29.87 in 10.0 mi ENE 17.3 mph - N/A   Clear
10:16 AM -0.4 °F -20.5 °F -16.6 °F 46% 29.88 in 10.0 mi East 16.1 mph 23.0 mph N/A   Clear
10:36 AM -0.4 °F -21.7 °F -14.8 °F 51% 29.89 in 10.0 mi ENE 18.4 mph - N/A   Clear
10:56 AM -0.4 °F -16.7 °F -14.8 °F 51% 29.90 in 10.0 mi ENE 10.4 mph - N/A   Clear
11:16 AM -0.4 °F -18.4 °F -14.8 °F 51% 29.91 in 10.0 mi ENE 12.7 mph - N/A   Clear
11:36 AM -0.4 °F -16.7 °F -14.8 °F 51% 29.91 in 10.0 mi ENE 10.4 mph - N/A   Clear
11:56 AM -0.4 °F -16.7 °F -14.8 °F 51% 29.92 in 10.0 mi ENE 10.4 mph - N/A   Clear
12:16 PM -0.4 °F -19.2 °F -14.8 °F 51% 29.92 in 10.0 mi East 13.8 mph 19.6 mph N/A   Clear
12:36 PM -0.4 °F -17.6 °F -14.8 °F 51% 29.92 in 10.0 mi East 11.5 mph 20.7 mph N/A   Clear
12:56 PM -0.4 °F -21.2 °F -14.8 °F 51% 29.93 in 10.0 mi East 17.3 mph 20.7 mph N/A   Clear
1:16 PM 1.4 °F -18.2 °F -13.0 °F 51% 29.93 in 10.0 mi East 16.1 mph 25.3 mph N/A   Clear
1:36 PM 1.4 °F -17.6 °F -14.8 °F 47% 29.94 in 10.0 mi East 15.0 mph - N/A   Clear
1:56 PM 1.4 °F -15.3 °F -14.8 °F 47% 29.95 in 10.0 mi ENE 11.5 mph - N/A   Clear
2:16 PM 1.4 °F -14.5 °F -14.8 °F 47% 29.95 in 10.0 mi East 10.4 mph - N/A   Clear
2:36 PM 1.4 °F -13.5 °F -14.8 °F 47% 29.95 in 10.0 mi East 9.2 mph - N/A   Clear
2:56 PM 1.4 °F -16.9 °F - N/A% 29.95 in 10.0 mi East 13.8 mph - N/A   Clear
3:16 PM 1.4 °F -16.9 °F -14.8 °F 47% 29.95 in 10.0 mi East 13.8 mph - N/A   Clear
3:36 PM 1.4 °F -15.3 °F -14.8 °F 47% 29.96 in 10.0 mi ENE 11.5 mph - N/A   Clear
3:56 PM 1.4 °F -16.9 °F -14.8 °F 47% 29.96 in 10.0 mi East 13.8 mph - N/A   Clear
4:16 PM 1.4 °F -17.6 °F -14.8 °F 47% 29.96 in 10.0 mi East 15.0 mph 19.6 mph N/A   Clear
4:36 PM 1.4 °F -16.9 °F -14.8 °F 47% 29.97 in 10.0 mi East 13.8 mph - N/A   Clear
4:56 PM 1.4 °F -16.1 °F -14.8 °F 47% 29.98 in 10.0 mi East 12.7 mph - N/A   Clear
5:16 PM 1.4 °F -12.5 °F -16.6 °F 43% 29.99 in 10.0 mi ENE 8.1 mph - N/A   Clear
5:36 PM 1.4 °F -18.2 °F -14.8 °F 47% 29.99 in 10.0 mi East 16.1 mph 20.7 mph N/A   Clear
5:56 PM 1.4 °F -6.2 °F -16.6 °F 43% 30.00 in 10.0 mi NE 3.5 mph - N/A   Clear
6:16 PM -0.4 °F -8.3 °F -16.6 °F 46% 30.01 in 10.0 mi North 3.5 mph - N/A   Clear
6:36 PM -0.4 °F -13.4 °F -16.6 °F 46% 30.01 in 10.0 mi North 6.9 mph - N/A   Clear
6:56 PM -0.4 °F -12.0 °F -16.6 °F 46% 30.02 in 10.0 mi North 5.8 mph - N/A   Clear
7:16 PM 1.4 °F -6.2 °F -16.6 °F 43% 30.03 in 10.0 mi NNE 3.5 mph - N/A   Clear
7:36 PM -0.4 °F -14.7 °F -18.4 °F 43% 30.03 in 10.0 mi NNE 8.1 mph - N/A   Clear
7:56 PM -0.4 °F -14.7 °F -18.4 °F 43% 30.03 in 10.0 mi NNE 8.1 mph - N/A   Clear
8:16 PM 1.4 °F -21.4 °F -16.6 °F 43% 30.04 in 10.0 mi ENE 23.0 mph 27.6 mph N/A   Clear
8:36 PM 1.4 °F -17.6 °F -16.6 °F 43% 30.05 in 10.0 mi ENE 15.0 mph - N/A   Clear
8:56 PM 1.4 °F -15.3 °F -20.2 °F 36% 30.05 in 10.0 mi NNE 11.5 mph - N/A   Clear
9:16 PM 1.4 °F -16.9 °F -18.4 °F 39% 30.05 in 10.0 mi NE 13.8 mph - N/A   Clear
9:36 PM 1.4 °F -17.6 °F -16.6 °F 43% 30.05 in 10.0 mi NE 15.0 mph - N/A   Clear
9:56 PM 1.4 °F -16.9 °F -18.4 °F 39% 30.06 in 10.0 mi NE 13.8 mph - N/A   Clear
10:16 PM -0.4 °F -17.6 °F -18.4 °F 43% 30.07 in 10.0 mi NE 11.5 mph - N/A   Clear
10:36 PM -0.4 °F -18.4 °F -18.4 °F 43% 30.08 in 10.0 mi NE 12.7 mph - N/A   Clear
10:56 PM -0.4 °F -17.6 °F -18.4 °F 43% 30.08 in 10.0 mi NNE 11.5 mph - N/A   Clear
11:16 PM 1.4 °F -14.5 °F -18.4 °F 39% 30.08 in 10.0 mi NNE 10.4 mph - N/A   Clear
11:36 PM -0.4 °F -10.4 °F -18.4 °F 43% 30.09 in 10.0 mi ENE 4.6 mph - N/A   Clear
11:56 PM -5.8 °F - -23.8 °F 42% 30.10 in 10.0 mi Calm Calm - N/A   Clear